User: anonymous   Login
Location: Unspecified
(0.0000°N, 0.0000°E)
Time: 18:02:25
(UTC+00:00)
Language:

USA 202 - Orbit

View from above orbital plane
View from above orbital plane
View from above satellite
View from above satellite

Ground track
Ground track

The orbit data is extracted from the following two-line orbital elements,

1 33490U 09001A   17345.73700159 0.00000000  00000-0  00000-0 0    04
2 33490   5.0160  30.0397 0007604 346.8271  13.1540  1.00270000    07
Epoch (UTC): 11 December 2017 17:41:16
Eccentricity: 0.0007604
inclination: 5.0160°
perigee height: 35754 km
apogee height: 35819 km
right ascension of ascending node: 30.0397°
argument of perigee: 346.8271°
revolutions per day: 1.00270000
mean anomaly at epoch: 13.1540°
orbit number at epoch: 0

The dashed part of the orbit path shows where the satellite is in the earth's shadow,  

DLR